Location: Unspecified
(49.2170°N, 0.0000°E)
Time: 21:00:27
(UTC+00:00)

N. Korean satellite - Visible Passes

Search period start: 30 November 2020 00:00
Search period end: 10 December 2020 00:00
Orbit: 453 x 504 km, 97.2° (Epoch: 29 November)

Date Brightness Start Highest point End Pass type
(mag) Time Alt. Az. Time Alt. Az. Time Alt. Az.
30 Nov 9.6 04:35:25 10° NE 04:37:44 16° E 04:40:04 10° SE visible
30 Nov 6.9 06:07:50 10° N 06:11:17 43° WNW 06:14:45 10° SW visible
30 Nov 7.1 16:46:36 10° S 16:50:00 62° W 16:53:27 10° NNW visible
01 Dec 6.5 05:41:24 10° NNE 05:45:01 89° WNW 05:48:41 10° SSW visible
01 Dec 10.1 17:56:42 10° W 17:57:27 11° W 17:58:11 10° WNW visible
02 Dec 7.7 05:15:11 10° NNE 05:18:40 44° E 05:22:11 10° S visible
02 Dec 8.1 06:49:18 10° NNW 06:51:43 17° WNW 06:54:07 10° WSW visible
02 Dec 9.4 17:28:13 10° SW 17:30:51 20° W 17:33:32 10° NW visible
03 Dec 9.1 04:49:16 10° NE 04:52:13 23° E 04:55:10 10° SSE visible
03 Dec 7.4 06:22:21 10° N 06:25:34 30° WNW 06:28:49 10° SW visible
03 Dec 8.0 17:01:06 10° S 17:04:21 40° W 17:07:41 10° NNW visible
04 Dec 10.0 04:24:06 10° ENE 04:25:39 12° E 04:27:12 10° ESE visible
04 Dec 6.5 05:55:45 10° N 05:59:20 60° WNW 06:02:57 10° SSW visible
04 Dec 6.5 16:34:32 10° SSE 16:37:58 88° WSW 16:41:29 10° NNW visible
05 Dec 6.9 05:29:22 10° NNE 05:33:01 67° ESE 05:36:40 10° S visible
05 Dec 9.8 17:43:17 10° SW 17:45:15 14° W 17:47:15 10° NW visible
06 Dec 8.4 05:03:14 10° NNE 05:06:35 32° E 05:09:55 10° SSE visible
06 Dec 7.8 06:36:53 10° NNW 06:39:45 22° WNW 06:42:39 10° WSW visible
06 Dec 8.8 17:15:40 10° SSW 17:18:40 28° W 17:21:45 10° NW visible
07 Dec 9.5 04:37:31 10° NE 04:40:02 17° E 04:42:34 10° SE visible
07 Dec 7.0 06:10:05 10° N 06:13:33 41° WNW 06:17:01 10° SW visible
07 Dec 7.2 16:48:47 10° S 16:52:11 57° W 16:55:41 10° NNW visible
08 Dec 6.5 05:43:33 10° NNE 05:47:14 83° WNW 05:50:56 10° SSW visible
08 Dec 10.3 17:59:17 10° W 17:59:36 10° W 17:59:54 10° W visible
09 Dec 7.6 05:17:15 10° NNE 05:20:50 48° E 05:24:24 10° S visible
09 Dec 8.2 06:51:28 10° NNW 06:53:49 16° WNW 06:56:11 10° WSW visible
09 Dec 9.5 17:30:20 10° SW 17:32:56 20° W 17:35:35 10° NW visible
